Find Starlink 32767

NORAD ID: 62601 Int'l Des: 2025-008 Owner: SPXS Country: US Constellation: starlink operational
LEOCIRCULAR

当前视图

正在加载3D地球...

About Starlink 32767

Starlink 32767 (NORAD 62601) is a starlink constellation satellite (v2 mini) launched Jan 13, 2025 by SPXS of US. It operates in LEO, CIRCULAR orbit with a mass of 730.00 kg.

关于 Starlink 32767

正在加载描述...

即将过境

Passes for default location (London). Set your location on the main map for personalized predictions.

高度历史

Loading altitude history...

两行轨道根数

1 62601U 25008Q 26170.41491500 .00014368 00000-0 53106-3 0 9990
2 62601 43.0032 63.2847 0001825 264.8383 95.2261 15.27551909 81186
Epoch: Jun 19, 2026 • Age: 14 hours

当前状态

高度 490.7 km
速度 7.62 km/s
星下点 -31.54°S, 20.07°E
发射日期 Jan 13, 2025
运行时间 1.4 years
类型 internet

技术详情

分类 Payload
质量 730.00 kg
干质量 700.00 kg
总质量 730.00 kg
长度 0.30 m
直径 4.10 m
跨度 29.00 m
形状 Box + pan
制造商 SPXS
平台类型 Starlink V2M
阶段状态 In Orbit
所有者/国家 SPXS/US

Most Searched